1326067232531,4.16222
1326067292531,4.09609
1326067352531,4.13653
1326067412531,4.14058
1326067472531,4.09843
1326067532531,4.08230
1326067592531,4.12640
1326067652531,4.09935
1326067712531,4.10347
1326067772531,4.10956
1326067832531,4.10049
1326067892531,4.13584
1326067952531,4.12652
1326068012531,4.12436
1326068072531,4.10836
1326068132531,4.11373
1326068192531,4.10151
1326068252531,4.14751
1326068312531,4.13096
1326068372531,4.11601
1326068432531,4.09594
1326068492531,4.08975
1326068552531,4.11757
1326068612531,4.10449
1326068672531,4.11496
1326068732531,4.11107
1326068792531,4.11162
1326068852531,4.09187
1326068912531,4.10613
1326068972531,4.14954
1326069032531,4.05891
1326069092531,4.15118
1326069152531,4.09084
1326069212531,4.07911
1326069272531,4.11669
1326069332531,4.08129
1326069392531,4.08989
1326069452531,4.09324
1326069512531,4.09941
1326069572531,4.08817
1326069632531,4.10035
1326069692531,4.07217
1326069752531,4.08612
1326069812531,4.13637
1326069872531,4.11536
1326069932531,4.10641
1326069992531,4.12763
1326070052531,4.09274
1326070112531,4.11265
1326070172531,4.12189
1326070232531,4.11292
1326070292531,4.10900
1326070352531,4.10854
1326070412531,4.13479
1326070472531,4.11223
1326070532531,4.12111
1326070592531,4.10663
1326070652531,4.09179
1326070712531,4.08141
1326070772531,4.09535
1326070832542,4.11651
1326070892542,4.09584
1326070952542,4.10562
1326071012542,4.13311
1326071072542,4.11969
1326071132542,4.11950
1326071192542,4.11419
1326071252542,4.08142
1326071312542,4.07930
1326071372542,4.08485
1326071432542,4.06476
1326071492542,4.10280
1326072032542,4.17426
1326072092542,4.12075
1326072152542,4.10791
1326072212542,4.10392
1326072272542,4.13465
1326072332542,4.11280
1326072392542,4.11828
1326072452542,4.05108
1326072512542,4.09318
1326072572542,4.14870
1326072632542,4.10424
1326072692542,4.10113
1326072752542,4.10700
1326072812542,4.11262
1326072872542,4.11944
1326072932542,4.11002
1326072992542,4.11488
1326073052542,4.12163
1326073112542,4.09445
1326073172542,4.10337
1326073232542,4.11178
1326073292542,4.13024
1326073352542,4.10867
1326073412542,4.11036
1326073472542,4.11874
1326073532542,4.14369
1326073592542,4.10568
1326073652542,4.12341
1326073712542,4.13986
1326073772542,4.11964
1326073832542,4.11885
1326073892542,4.13808
1326073952542,4.13328
1326074012542,4.09501
1326074072542,4.10703
1326074132542,4.07261
1326074192542,4.07879
1326074252542,4.11275
1326074312542,4.10456
1326074372542,4.10015
1326074432553,4.06524
1326074492553,4.10455
1326074552553,4.10612
1326074612553,4.09937
1326074672553,4.11142
1326074732553,4.12983
1326074792553,4.06828
1326074852553,4.05613
1326074912553,4.07321
1326074972553,4.09429
1326075032553,4.07551
1326075092553,4.07522
1326075152553,4.09817
1326075212553,4.09758
1326075272553,4.08970
1326075332553,4.12737
1326075392553,4.07782
1326075452553,4.12802
1326075512553,4.10125
1326075572553,4.10906
1326075632553,4.09350
1326075692553,4.08794
1326075752553,4.09971
1326075812553,4.06516
1326075872553,4.10221
1326075932553,4.09153
1326075992553,4.09152
1326076052553,4.03457
1326076112553,4.06877
1326076172553,4.10073
1326076232553,4.07408
1326076292553,4.09410
1326076352553,4.06926
1326076412553,4.11059
1326076472553,4.11015
1326076532553,4.09841
1326076592553,4.09852
1326076652553,4.10530
1326076712553,4.12111
1326076772553,4.10293
1326076832553,4.11537
1326076892553,4.11854
1326076952553,4.13411
1326077012553,4.08902
1326077072553,4.09881
1326077132553,4.09203
1326077192553,4.07643
1326077252553,4.11237
1326077312553,4.10701
1326077372553,4.08327
1326077432553,4.09991
1326077492553,4.06962
1326077552553,4.10710
1326077612553,4.06504
1326077672553,4.09944
1326077732553,4.06393
1326077792553,4.06856
1326077852553,4.06762
1326077912553,4.09220
1326077972553,4.09162
1326078032563,4.07868
1326078092563,4.11781
1326078152563,4.08591
1326078212563,4.09120
1326078272563,4.10009
1326078332563,4.10510
1326078392563,4.05666
1326078452563,4.09599
1326078512563,4.10388
1326078572563,4.10903
1326078632563,4.07344
1326078692563,4.05681
1326078752563,4.12378
1326078812563,4.06573
1326078872563,4.09593
1326078932563,4.08178
1326078992563,4.10125
1326079052563,4.11065
1326079112563,4.05855
1326079172563,4.08437
1326079232563,4.07454
1326079292563,4.06152
1326079352563,4.09053
1326079412563,4.08865
1326079472563,4.06778
1326079532563,4.08393
1326079592563,4.08656
1326079652563,4.07920
1326079712563,4.06824
1326079772563,4.10783
1326079832563,4.08191
1326079892563,4.08986
1326079952563,4.08012
1326080012563,4.08292
1326080072563,4.09171
1326080132563,4.09613
1326080192563,4.12663
1326080252563,4.06076
1326080312563,4.08470
1326080372563,4.09152
1326080432563,4.07783
1326080492563,4.09952
1326080552563,4.09590
1326080612563,4.06826
1326080672563,4.09969
1326080732563,4.08549
1326080792563,4.09502
1326080852563,4.08720
1326080912563,4.09789
1326080972563,4.06976
1326081032563,4.12312
1326081092563,4.07811
1326081152563,4.08580
1326081212563,4.04438
1326081272563,4.07244
1326081332563,4.09395
1326081392563,4.07768
1326081452563,4.06535
1326081512563,4.03344
1326081572563,4.07838
1326081632574,4.04988
1326081692574,4.06726
1326081752574,4.08847
1326081812574,4.05365
1326081872574,4.07705
1326081932574,4.10695
1326081992574,4.04504
1326082052574,4.03729
1326082112574,4.06804
1326082172574,4.07231
1326082232574,4.07665
1326082292574,4.06592
1326082352574,4.06410
1326082412574,4.08525
1326082472574,4.06647
1326082532574,4.06655
1326082592574,4.10070
1326082652574,4.09057
1326082712574,4.08596
1326082772574,4.08869
1326082832574,4.06805
1326082892574,4.06735
1326082952574,4.08400
1326083012574,4.06782
1326083072574,4.04293
1326083132574,4.07029
1326083192574,4.06008
1326083252574,4.06379
1326083312574,4.10665
1326083372574,4.06106
1326083432574,4.05428
1326083492574,4.07239
1326083552574,4.07560
1326083612574,4.07452
1326083672574,4.08768
1326083732574,4.07928
1326083792574,4.08889
1326083852574,4.08178
1326083912574,4.07563
1326083972574,4.04912
1326084032574,4.07575
1326084092574,4.05536
1326084152574,4.08937
1326084212574,4.03825
1326084272574,4.07209
1326084332574,4.02754
1326084392574,4.06465
1326084452574,4.04367
1326084512574,4.06639
1326084572574,4.05449
1326084632574,4.09754
1326084692574,4.04984
1326084752574,4.04079
1326084812574,4.05929
1326084872574,4.08102
1326084932574,4.08812
1326084992574,4.07210
1326085052574,4.02657
1326085112574,4.06328
1326085172574,4.11845
1326085232585,4.06522
1326085292585,4.07174
1326085352585,4.05728
1326085412585,4.03626
1326085472585,4.07349
1326085532585,4.07026
1326085592585,4.10222
1326085652585,4.06737
1326085712585,4.06433
1326085772585,4.04774
1326085832585,4.04691
1326085892585,4.05329
1326085952585,4.07526
1326086012585,4.02727
1326086072585,4.03231
1326086132585,4.05924
1326086192585,4.07863
1326086252585,4.04244
1326086312585,4.04959
1326086372585,4.08177
1326086432585,4.06079
1326086492585,4.02560
1326086552585,4.03043
1326086612585,4.05033
1326086672585,4.05857
1326086732585,4.04070
1326086792585,4.03589
1326086852585,4.05626
1326086912585,4.05149
1326086972585,4.04217
1326087032585,4.05791
1326087092585,4.04209
1326087152585,4.04963
1326087212585,4.03098
1326087272585,4.03515
1326087332585,3.98862
1326087392585,4.06065
1326087452585,4.04587
1326087512585,4.04455
1326087572585,4.03844
1326087632585,4.04917
1326087692585,4.06226
1326087752585,4.04390
1326087812585,4.04038
1326087872585,3.99653
1326087932585,4.02298
1326087992585,4.04768
1326088052585,4.01799
1326088112585,4.02767
1326088172585,4.03401
1326088232585,3.99303
1326088292585,4.04755
1326088352585,4.04303
1326088412585,4.01530
1326088472585,4.02909
1326088532585,4.00799
1326088592585,4.04049
1326088652585,4.03707
1326088712585,4.02128
1326088772585,4.05271
1326088832596,4.01477
1326088892596,4.02832
1326088952596,4.01050
1326089012596,4.02586
1326089072596,4.03183
1326089132596,4.04638
1326089192596,4.03357
1326089252596,4.04592
1326089312596,4.04841
1326089372596,4.01494
1326089432596,4.03048
1326089492596,4.03605
1326089552596,4.02385
1326089612596,4.03998
1326089672596,4.03904
1326089732596,4.06541
1326089792596,4.01936
1326089852596,4.07766
1326089912596,3.97318
1326089972596,4.00513
1326090032596,4.01117
1326090092596,4.04252
1326090152596,4.03156
1326090212596,4.01689
1326090272596,4.03904
1326090332596,4.02990
1326090392596,4.04201
1326090452596,4.05459
1326090512596,4.06674
1326090572596,4.03198
1326090632596,4.01756
1326090692596,4.02377
1326090752596,4.01364
1326090812596,4.01849
1326090872596,4.02605
1326090932596,4.02062
1326090992596,4.03787
1326091052596,4.01383
1326091112596,4.02735
1326091172596,3.99864
1326091232596,4.06019
1326091292596,4.02096
1326091352596,4.02970
1326091412596,4.00685
1326091472596,4.01578
1326091532596,4.01395
1326091592596,3.99545
1326091652596,4.01858
1326091712596,4.00675
1326091772596,4.01342
1326091832596,3.99676
1326091892596,4.03511
1326091952596,4.04385
1326092012596,4.02930
1326092072596,4.00341
1326092132596,4.03600
1326092192596,3.99497
1326092252596,4.00569
1326092312596,4.01877
1326092372596,4.03043
1326092432607,3.99417
1326092492607,4.01100
1326092552607,3.98014
1326092612607,4.03003
1326092672607,4.02642
1326092732607,4.03157
1326092792607,4.03552
1326092852607,4.00636
1326092912607,4.01928
1326092972607,4.02436
1326093032607,4.04595
1326093092607,4.01109
1326093152607,3.99288
1326093212607,3.98801
1326093272607,4.01705
1326093332607,4.02160
1326093392607,3.98635
1326093452607,4.01742
1326093512607,4.06625
1326093572607,4.00134
1326093632607,4.01595
1326093692607,4.00770
1326093752607,3.99042
1326093812607,4.01021
1326093872607,4.01208
1326093932607,4.01481
1326093992607,4.01961
1326094052607,4.03493
1326094112607,4.03039
1326094172607,4.03042
1326094232607,4.01373
1326094292607,4.01071
1326094352607,4.00434
1326094412607,4.02074
1326094472607,4.00271
1326094532607,4.01825
1326094592607,4.03455
1326094652607,4.03159
1326094712607,3.99657
1326094772607,4.00391
1326094832607,4.01711
1326094892607,4.02098
1326094952607,4.02628
1326095012607,4.03387
1326095072607,4.04040
1326095132607,4.05240
1326095192607,4.05169
1326095252607,4.03647
1326095312607,4.04727
1326095372607,4.02178
1326095432607,4.04649
1326095492607,4.03394
1326095552607,4.05582
1326095612607,4.03481
1326095672607,4.04516
1326095732607,4.04154
1326095792607,4.03023
1326095852607,3.96970
1326095912607,4.00213
1326095972607,4.00918
1326096032619,4.05540
1326096092619,4.03808
1326096152619,4.03477
1326096212619,4.04450
1326096272619,4.07173
1326096332619,4.02459
1326096392619,4.03991
1326096452619,4.01290
1326096512619,4.01453
1326096572619,4.02627
1326096632619,4.03527
1326096692619,4.01359
1326096752619,4.01576
1326096812619,4.02197
1326096872619,4.00473
1326096932619,4.01433
1326096992619,4.01500
1326097052619,4.04289
1326097112619,4.04162
1326097172619,4.02685
1326097232619,4.02999
1326097292619,4.04532
1326097352619,4.07499
1326097412619,4.06664
1326097472619,4.05561
1326097532619,4.04774
1326097592619,4.05774
1326097652619,4.05958
1326097712619,4.05040
1326097772619,4.04219
1326097832619,4.05583
1326097892619,4.05512
1326097952619,4.05750
1326098012619,4.05798
1326098072619,4.03141
1326098132619,4.09788
1326098192619,4.02686
1326098252619,4.05906
1326098312619,4.06233
1326098372619,4.06193
1326098432619,4.07404
1326098492619,4.04608
1326098552619,4.07216
1326098612619,4.08110
1326098672619,4.07830
1326098732619,4.09831
1326098792619,4.10320
1326098852619,4.06892
1326098912619,4.07176
1326098972619,4.06023
1326099032619,4.10992
1326099092619,4.12116
1326099152619,4.10668
1326099212619,4.07486
1326099272619,4.09808
1326099332619,4.07922
1326099392619,4.06573
1326099452619,4.09277
1326099512619,4.09770
1326099572619,4.12084
1326099632630,4.09539
1326099692630,4.10002
1326099752630,4.12369
1326099812630,4.10707
1326099872630,4.11012
1326099932630,4.11799
1326099992630,4.10970
1326100052630,4.11094
1326100112630,4.08780
1326100172630,4.10471
1326100232630,4.07988
1326100292630,4.08817
1326100352630,4.11023
1326100412630,4.10442
1326100472630,4.11707
1326100532630,4.07771
1326100592630,4.10995
1326100652630,4.09922
1326100712630,4.13166
1326100772630,4.08508
1326100832630,4.07464
1326100892630,4.08891
1326100952630,4.07785
1326101012630,4.09610
1326101072630,4.11550
1326101132630,4.09538
1326101192630,4.07777
1326101252630,4.05926
1326101312630,4.10975
1326101372630,4.10157
1326101432630,4.13274
1326101492630,4.11363
1326101552630,4.09675
1326101612630,4.09541
1326101672630,4.14848
1326101732630,4.07031
1326101792630,4.10412
1326101852630,4.08638
1326101912630,4.09927
1326101972630,4.12446
1326102032630,4.08451
1326102092630,4.09674
1326102152630,4.07628
1326102212630,4.10549
1326102272630,4.08188
1326102332630,4.08093
1326102392630,4.08753
1326102452630,4.11603
1326102512630,4.07344
1326102572630,4.09149
1326102632630,4.10196
1326102692630,4.07026
1326102752630,4.12484
1326102812630,4.09512
1326102872630,4.14800
1326102932630,4.11878
1326102992630,4.10057
1326103052630,4.12599
1326103112630,4.12562
1326103172630,4.10664
1326103232642,4.11428
1326103292642,4.08235
1326103352642,4.12810
1326103412642,4.11807
1326103472642,4.11736
1326103532642,4.07779
1326103592642,4.08038
1326103652642,4.09670
1326103712642,4.12213
1326103772642,4.13221
1326103832642,4.08043
1326103892642,4.12565
1326103952642,4.10060
1326104012642,4.12586
1326104072642,4.12663
1326104132642,4.08373
1326104192642,4.12924
1326104252642,4.09212
1326104312642,4.12037
1326104372642,4.11898
1326104432642,4.13719
1326104492642,4.11783
1326104552642,4.13301
1326104612642,4.10658
1326104672642,4.10569
1326104732642,4.09522
1326104792642,4.08443
1326104852642,4.10828
1326104912642,4.11296
1326104972642,4.11739
1326105032642,4.11770
1326105092642,4.10330
1326105152642,4.11927
1326105212642,4.10142
1326105272642,4.11197
1326105332642,4.14434
1326105392642,4.13396
1326105452642,4.13527
1326105512642,4.14296
1326105572642,4.14069
1326105632642,4.14662
1326105692642,4.16939
1326105752642,4.21054
1326105812642,4.19512
1326105872642,4.16621
1326105932642,4.18002
1326105992642,4.12494
1326106052642,4.12536
1326106112642,4.13352
1326106172642,4.14235
1326106232642,4.16152
1326106292642,4.11199
1326106352642,4.11588
1326106412642,4.10835
1326106472642,4.11078
1326106532642,4.12700
1326106592642,4.12794
1326106652642,4.10151
1326106712642,4.12670
1326106772642,4.11983
1326106832654,4.12778
1326106892654,4.11523
1326106952654,4.11708
1326107012654,4.11817
1326107072654,4.11969
1326107132654,4.12086
1326107192654,4.09335
1326107252654,4.10974
1326107312654,4.12186
1326107372654,4.09288
1326107432654,4.12215
1326107492654,4.12648
1326107552654,4.10468
1326107612654,4.11966
1326107672654,4.11858
1326107732654,4.10767
1326107792654,4.07959
1326107852654,4.13577
1326107912654,4.15037
1326107972654,4.11801
1326108032654,4.11300
1326108092654,4.13283
1326108152654,4.07488
1326108212654,4.14082
1326108272654,4.15013
1326108332654,4.10998
1326108392654,4.11676
1326108452654,4.12401
1326108512654,4.10672
1326108572654,4.08800
1326108632654,4.10720
1326108692654,4.12386
1326108752654,4.11359
1326108812654,4.11688
1326108872654,4.12465
1326108932654,4.10477
1326108992654,4.08876
1326109052654,4.11528
1326109112654,4.10241
1326109172654,4.16656
1326109232654,4.09192
1326109292654,4.13002
1326109352654,4.11381
1326109412654,4.10505
1326109472654,4.08439
1326109532654,4.09969
1326109592654,4.08115
1326109652654,4.12066
1326109712654,4.12426
1326109772654,4.11899
1326109832654,4.10671
1326109892654,4.13215
1326109952654,4.10628
1326110012654,4.11147
1326110072654,4.12232
1326110132654,4.11937
1326110192654,4.09589
1326110252654,4.09213
1326110312654,4.08520
1326110372654,4.06690
1326110432666,4.14601
1326110492666,4.12772
1326110552666,4.14574
1326110612666,4.12232
1326110672666,4.13231
1326110732666,4.16459
1326110792666,4.12778
1326110852666,4.11890
1326110912666,4.11870
1326110972666,4.12382
1326111032666,4.10820
1326111092666,4.10803
1326111152666,4.14168
1326111212666,4.10546
1326111272666,4.10284
1326111332666,4.14244
1326111392666,4.12333
1326111452666,4.15541
1326111512666,4.14863
1326111572666,4.11788
1326111632666,4.14100
1326111692666,4.12229
1326111752666,4.10557
1326111812666,4.09671
1326111872666,4.09151
1326111932666,4.12129
1326111992666,4.11602
1326112052666,4.11418
1326112112666,4.10493
1326112172666,4.15099
1326112232666,4.09834
1326112292666,4.18631
1326112352666,4.12731
1326112412666,4.11336
1326112472666,4.13834
1326112532666,4.11519
1326112592666,4.13793
1326112652666,4.11949
1326112712666,4.10279
1326112772666,4.13052
1326112832666,4.15551
1326112892666,4.14170
1326112952666,4.13821
1326113012666,4.15703
1326113072666,4.12346
1326113132666,4.09518
1326113192666,4.16583
1326113252666,4.13328
1326113312666,4.11178
1326113372666,4.11725
1326113432666,4.12473
1326113492666,4.13138
1326113552666,4.15373
1326113612666,4.14701
1326113672666,4.09611
1326113732666,4.13398
1326113792666,4.08912
1326113852666,4.09837
1326113912666,4.13321
1326113972666,4.10511
1326114032677,4.12840
1326114092678,4.11880
1326114152678,4.09099
1326114212678,4.08712
1326114272678,4.07653
1326114332678,4.13087
1326114392678,4.14077
1326114452677,4.10148
1326114512677,4.12930
1326114572677,4.09679
1326114632677,4.10139
1326114692677,4.13402
1326114752677,4.10058
1326114812677,4.09191
1326114872677,4.10647
1326114932677,4.10865
1326114992677,4.07901
1326115052677,4.11606
1326115112677,4.09780
1326115172677,4.10440
1326115232677,4.16800
1326115292677,4.11155
1326115352677,4.09681
1326115412677,4.12476
1326115472678,4.10236
1326115532678,4.12174
1326115592678,4.09255
1326115652678,4.10356
1326115712678,4.11186
1326115772677,4.09200
1326115832677,4.07184
1326115892677,4.09121
1326115952677,4.09206
1326116012677,4.10017
1326116072677,4.09312
1326116132677,4.09656
1326116192677,4.13760
1326116252677,4.07418
1326116312677,4.09888
1326116372677,4.07686
1326116432677,4.09633
1326116492677,4.11108
1326116552677,4.08744
1326116612677,4.13086
1326116672677,4.11611
1326116732677,4.10340
1326116792678,4.13667
1326116852678,4.11259
1326116912678,4.10820
1326116972678,4.11513
1326117032678,4.05626
1326117092678,4.09141
1326117152677,4.07795
1326117212677,4.09507
1326117272677,4.09178
1326117332677,4.06764
1326117392677,4.08309
1326117452677,4.09232
1326117512677,4.08844
1326117572677,4.08509
1326117632689,4.10591
1326117692689,4.07987
1326117752689,4.06843
1326117812689,4.10800
1326117872689,4.08063
1326117932689,4.07406
1326117992689,4.07790
1326118052689,4.09549
1326118112689,4.09178
1326118172689,4.08846
1326118232689,4.08911
1326118292689,4.09992
1326118352689,4.08157
1326118412689,4.08950
1326118472689,4.09086
1326118532689,4.09011
1326118592689,4.08431
1326118652689,4.06627
1326118712689,4.08832
1326118772689,4.09549
1326118832689,4.07385
1326118892689,4.10159
1326118952689,4.08765
1326119012689,4.10533
1326119072689,4.08615
1326119132689,4.07751
1326119192689,4.06795
1326119252689,4.05202
1326119312689,4.06731
1326119372689,4.08614
1326119432689,4.07562
1326119492689,4.06037
1326119552689,4.07649
1326119612689,4.09293
1326119672689,4.10898
1326119732689,4.10541
1326119792689,4.10545
1326119852689,4.09819
1326119912689,4.08497
1326119972689,4.09761
1326120032689,4.08437
1326120092689,4.08265
1326120152689,4.07439
1326120212689,4.11536
1326120272689,4.09885
1326120332689,4.09197
1326120392689,4.06401
1326120452689,4.04194
1326120512689,4.10254
1326120572689,4.08300
1326120632689,4.08667
1326120692689,4.08909
1326120752689,4.09739
1326120812689,4.09847
1326120872689,4.18086
1326120932689,4.20092
1326120992689,4.21834
1326121052689,4.16700
1326121112689,4.10093
1326121172689,4.15023
1326121232701,4.13235
1326121292701,4.11057
1326121352701,4.13110
1326121412701,4.12363
1326121472701,4.13866
1326121532701,4.10813
1326121592701,4.10534
1326121652701,4.08038
1326121712701,4.14196
1326121772701,4.09248
1326121832701,4.14767
1326121892701,4.11841
1326121952701,4.10270
1326122012701,4.11685
1326122072701,4.13529
1326122132701,4.11495
1326122192701,4.11635
1326122252701,4.07357
1326122312701,4.07152
1326122372701,4.10597
1326122432701,4.09160
1326122492701,4.11351
1326122552701,4.12806
1326122612701,4.11952
1326122672701,4.08815
1326122732701,4.08163
1326122792701,4.10988
1326122852701,4.13115
1326122912701,4.06480
1326122972701,4.11360
1326123032701,4.11609
1326123092701,4.12384
1326123152701,4.11448
1326123212701,4.09849
1326123272701,4.10707
1326123332701,4.12410
1326123392701,4.08082
1326123452701,4.08334
1326123512701,4.12867
1326123572701,4.11226
1326123632701,4.10941
1326123692701,4.07759
1326123752701,4.07733
1326123812701,4.11788
1326123872701,4.09744
1326123932701,4.13366
1326123992701,4.12607
1326124052701,4.12607
1326124112701,4.10086
1326124172701,4.11097
1326124232701,4.11405
1326124292701,4.14600
1326124352701,4.15232
1326124412701,4.16770
1326124472701,4.15201
1326124532701,4.16764
1326124592701,4.17068
1326124652701,4.15072
1326124712701,4.14506
1326124772701,4.12854
1326124832712,4.14183
1326124892712,4.12127
1326124952712,4.17948
1326125012712,4.11589
1326125072712,4.15058
1326125132712,4.14106
1326125192712,4.12984
1326125252712,4.10965
1326125312712,4.13327
1326125372712,4.12953
1326125432712,4.12302
1326125492712,4.08679
1326125552712,4.10363
1326125612712,4.14585
1326125672712,4.12540
1326125732712,4.14476
1326125792712,4.10670
1326125852712,4.22843
1326125912712,4.12054
1326125972712,4.11109
1326126032712,4.11473
1326126092712,4.08917
1326126152712,4.13861
1326126212712,4.14320
1326126272712,4.11856
1326126332712,4.09362
1326126392712,4.09846
1326126452712,4.12828
1326126512712,4.10652
1326126572712,4.09989
1326126632712,4.12425
1326126692712,4.08181
1326126752712,4.09290
1326126812712,4.11669
1326126872712,4.13022
1326126932712,4.10537
1326126992712,4.09156
1326127052712,4.07333
1326127112712,4.11251
1326127172712,4.12247
1326127232712,4.09247
1326127292712,4.11180
1326127352712,4.07149
1326127412712,4.12207
1326127472712,4.09916
1326127532712,4.09658
1326127592712,4.10819
1326127652712,4.07407
1326127712712,4.11199
1326127772712,4.10526
1326127832712,4.08984
1326127892712,4.09539
1326127952712,4.06449
1326128012712,4.11613
1326128072712,4.08855
1326128132712,4.11719
1326128192712,4.11731
1326128252712,4.08750
1326128312712,4.12107
1326128372712,4.10148
1326128432714,4.12149
1326128492714,4.06573
1326128552714,4.08666
1326128612714,4.12436
1326128672714,4.08294
1326128732714,4.10914
1326128792714,4.10344
1326128852714,4.12677
1326128912714,4.09603
1326128972714,4.08301
1326129032714,4.11441
1326129092714,4.08349
1326129152714,4.10061
1326129212714,4.11118
1326129272714,4.14744
1326129332714,4.11602
1326129392714,4.11603
1326129452714,4.10796
1326129512714,4.13464
1326129572714,4.09132
1326129632714,4.11572
1326129692714,4.10441
1326129752714,4.10072
1326129812714,4.12882
1326129872714,4.06310
1326129932714,4.09361
1326129992714,4.07396
1326130052714,4.07798
1326130112714,4.09128
1326130172714,4.05319
1326130232714,4.09507
1326130292714,4.10546
1326130352714,4.05796
1326130412714,4.08484
1326130472714,4.07704
1326130532714,4.06207
1326130592714,4.09876
1326130652714,4.07018
1326130712714,4.09152
1326130772714,4.09048
1326130832714,4.04767
1326130892714,4.04285
1326130952714,4.05012
1326131012714,4.05354
1326131072714,4.09495
1326131132714,4.04946
1326131192714,4.05881
1326131252714,4.05165
1326131312714,4.09512
1326131372714,4.07034
1326131432714,4.03166
1326131492714,4.09438
1326131552714,4.03788
1326131612714,4.05163
1326131672714,4.02647
1326131732714,4.04608
1326131792714,4.05441
1326131852714,4.07190
1326131912714,4.07126
1326131972714,4.07113
1326132032725,4.04299
1326132092725,4.07682
1326132152725,4.05218
1326132212725,4.05030
1326132272725,4.05582
1326132332725,4.06144
1326132392725,4.03850
1326132452725,4.05363
1326132512725,4.03428
1326132572725,4.04047
1326132632725,4.05535
1326132692725,4.03191
1326132752725,4.07779
1326132812725,4.07633
1326132872725,4.05676
1326132932725,4.04084
1326132992725,4.05430
1326133052725,4.06257